Location: Stigler
(35.2540°N, 95.1230°W)
Time: 00:37:00
(UTC-05:00)

Daily predictions for brighter satellites

Satellite Brightness Start Highest point End
(mag) Time Altitude Azimuth Time Altitude Azimuth Time Altitude Azimuth
Cosmos 1603 4.4 00:00:58 10° N 00:06:21 44° ENE 00:06:21 44° ENE
Cosmos 1048 Rocket 4.4 00:03:51 10° NNW 00:08:41 59° WNW 00:08:41 59° WNW
Cosmos 2074 Rocket 3.9 00:10:28 81° ESE 00:10:31 81° E 00:16:50 10° N
Cosmos 158 Rocket 4.4 00:06:02 10° NNW 00:10:27 58° NNE 00:10:27 58° NNE
Cosmos 2327 Rocket 4.4 00:19:21 85° SW 00:19:30 87° W 00:25:58 10° N
Cosmos 2237 Rocket 4.0 00:15:51 10° NW 00:19:53 20° W 00:20:07 20° WSW
H-2A R/B 4.4 00:26:25 10° NNE 00:28:27 26° NE 00:28:27 26° NE
Cosmos 44 4.0 00:33:29 59° NNW 00:33:29 59° NNW 00:38:15 10° NNE
Cosmos 1932 4.4 00:27:11 10° NNW 00:33:28 85° N 00:33:28 85° N
Cosmos 2154 Rocket 4.1 00:44:36 68° ENE 00:44:36 68° ENE 00:50:20 10° N
Meteor 2-10 Rocket 4.0 00:40:45 10° N 00:45:39 68° N 00:45:39 68° N
ATLAS 3B R/B 3.6 00:42:30 10° NW 00:47:56 34° W 00:47:56 34° W
CZ-3 Stage 3 3.9 00:04:17 10° W 00:51:36 69° S 00:52:55 61° SE
Cosmos 2263 Rocket 3.2 00:54:57 38° ENE 00:54:57 38° ENE 00:58:44 10° NNE
BREEZE-M DEB (TANK) 4.3 00:53:40 10° NW 00:59:04 29° N 00:59:04 29° N
CZ-4C R/B 3.0 00:57:25 10° NNW 01:04:40 70° ENE 01:05:36 64° E
USA 238 DEB 3.9 00:59:36 10° NW 01:05:56 60° W 01:05:56 60° W
USA 238 3.9 00:59:42 10° NW 01:06:02 60° W 01:06:02 60° W
ALOS 2 4.3 01:11:54 30° NNW 01:11:54 30° NNW 01:14:11 10° NNW
CZ-2C R/B 3.6 01:09:23 10° NNE 01:12:53 39° NE 01:12:53 39° NE
SL-16 R/B 4.4 01:12:27 10° WNW 01:14:25 14° W 01:14:25 14° W
SeaSat 1 3.7 01:20:10 34° NW 01:20:10 34° NW 01:23:06 10° NNW
MOS 1-B Rocket 4.2 01:18:55 60° NE 01:18:55 60° NE 01:23:48 10° N
Cosmos 2341 Rocket 4.1 01:22:33 70° NW 01:22:33 70° NW 01:28:32 10° N
SL-8 Rocket 4.2 01:25:14 65° ENE 01:25:14 65° ENE 01:30:57 10° NNE
Cosmos 909 Rocket 4.4 01:28:46 55° E 01:28:46 55° E 01:34:48 10° NE
Cosmos 1943 3.8 01:30:42 10° NNW 01:34:59 52° NW 01:34:59 52° NW
NOSS 3-2 (C) 4.0 01:32:41 10° NNW 01:40:21 80° ENE 01:41:26 68° ESE
Cosmos 2218 Rocket 4.1 01:41:06 72° NE 01:41:06 72° NE 01:46:56 10° N
Cosmos 2366 rocket 4.0 01:50:30 72° NE 01:50:30 72° NE 01:56:09 10° N
Cosmos 1867 4.3 01:50:49 10° NNW 01:54:41 47° NNW 01:54:41 47° NNW
NOSS 3-2 (A) 4.0 01:53:41 10° NW 02:01:07 65° WSW 02:01:07 65° WSW
CZ-2C R/B 3.5 02:03:48 67° NNW 02:03:48 67° NNW 02:08:36 10° NNW
RESURS DK-1 4.5 02:07:11 24° NNW 02:07:11 24° NNW 02:09:18 10° N
Cosmos 864 Rocket 4.5 02:09:10 73° NW 02:09:10 73° NW 02:14:53 10° N
Meteor 1-14 Rocket 4.5 02:18:06 67° NW 02:18:06 67° NW 02:23:26 10° N
BREEZE-M DEB (TANK) 3.9 02:07:06 10° WNW 02:18:01 77° NNE 02:18:01 77° NNE
Cosmos 1727 Rocket 3.9 02:11:53 10° N 02:17:47 80° NNW 02:17:47 80° NNW
Cosmos 1190 Rocket 4.4 02:23:03 10° NNW 02:27:16 58° N 02:27:16 58° N
Cosmos 1844 Rocket 2.8 02:33:05 70° ENE 02:33:05 70° ENE 02:38:15 10° NNE
Okean 1 Rocket 4.3 02:34:20 39° NE 02:34:20 39° NE 02:37:31 10° NNE
Cosmos 2263 Rocket 4.0 02:36:37 20° WNW 02:37:26 21° WNW 02:41:38 10° N
Cosmos 407 Rocket 3.8 02:34:45 10° NNW 02:39:07 64° N 02:39:07 64° N
Meteor 1-20 Rocket 4.2 02:42:52 84° NNW 02:42:52 84° NNW 02:48:31 10° N
Meteor 1-18 Rocket 4.2 02:38:04 10° N 02:43:28 78° NW 02:43:28 78° NW
NOSS 2-2 (E) 4.5 02:46:34 47° NE 02:46:34 47° NE 02:49:59 10° NNE
Okean 1-7 Rocket 4.5 02:41:53 10° N 02:45:45 47° NE 02:45:45 47° NE
Gbstr 26 Del rocket 4.4 02:51:47 31° NNW 02:51:47 31° NNW 02:54:36 10° NNE
IRAS Rocket 4.4 02:46:02 10° NNE 02:51:31 60° ESE 02:51:42 60° ESE
CZ-4C R/B 4.4 02:47:14 10° WNW 02:50:45 21° W 02:50:45 21° W
Cosmos 676 Rocket 4.0 02:47:42 10° NNW 02:52:27 74° N 02:52:27 74° N
ATLAS 5 CENTAUR R/B 4.1 02:47:50 10° N 02:53:05 30° NE 02:58:35 10° ESE
Cosmos 1844 3.6 02:53:33 84° ESE 02:53:33 84° ESE 02:59:18 10° NNE
Cosmos 1000 Rocket 4.4 02:48:12 10° N 02:54:22 81° E 02:55:06 69° SSE
Iridium 4 Rocket 4.0 02:50:07 10° NNW 02:54:06 49° NW 02:54:06 49° NW
Cosmos 2278 Rocket 2.2 03:04:33 67° SE 03:04:52 69° ESE 03:10:31 10° NNE
USA 234 4.4 03:00:48 10° ESE 03:06:52 43° NE 03:12:57 10° NNW
Meteor 1-11 Rocket 3.9 03:06:16 61° SE 03:07:08 71° E 03:13:05 10° NNE
Cosmos 1809 Rocket 4.3 03:06:55 72° SSW 03:07:34 83° W 03:13:45 10° N
SL-24 DEB 4.4 03:04:46 10° N 03:08:55 69° NNW 03:08:55 69° NNW
GP-B 3.4 03:06:52 10° N 03:10:39 64° N 03:10:39 64° N
CENTAUR R/B 3.1 03:03:45 10° NNW 03:11:45 87° ENE 03:18:09 19° SSE
Meteor 1-13 Rocket 4.3 03:07:19 10° N 03:13:05 77° E 03:14:14 58° SSE
Cosmos 1605 Rocket 4.2 03:12:35 47° SSE 03:14:13 62° E 03:20:23 10° NNE
Cosmos 1821 Rocket 3.9 03:14:15 63° SW 03:15:13 74° W 03:21:37 10° N
Cosmos 1954 Rocket 3.9 03:11:54 10° NNW 03:16:51 75° WNW 03:16:51 75° WNW
BREEZE-M TANK 4.3 03:19:22 17° E 03:19:22 17° E 03:20:19 10° E
Meteor 2-21 4.3 03:17:10 62° WSW 03:17:52 68° W 03:23:58 10° N
COSMOS 2406 3.9 03:12:45 10° NW 03:17:10 39° WNW 03:17:10 39° WNW
Meteor 2-16 Rocket 4.4 03:17:22 57° SSE 03:18:40 80° E 03:24:49 10° N
Cosmos 1544 Rocket 4.4 03:19:55 41° ESE 03:20:14 42° E 03:24:23 10° NNE
Cosmos 1400 Rocket 3.7 03:21:17 44° ENE 03:21:17 44° ENE 03:24:41 10° NNE
Cosmos 2123 Rocket 4.1 03:17:04 10° N 03:23:25 75° E 03:25:42 42° SSE
CBERS 1 LM4 rocket 4.3 03:19:47 10° NNE 03:24:38 74° ESE 03:24:55 71° SE
Cosmos 2082 Rocket 4.3 03:22:02 10° N 03:26:39 24° ENE 03:31:13 10° ESE
SL-16 R/B 3.8 03:23:01 10° SE 03:28:39 37° ENE 03:34:15 10° N
Cosmos 1461 3.8 03:33:54 41° WNW 03:34:05 42° WNW 03:38:30 10° NNE
NPP 3.8 03:29:36 10° N 03:34:51 54° WNW 03:35:31 50° W
Cosmos 1023 Rocket 4.3 03:30:57 10° NNW 03:36:02 78° WSW 03:36:37 68° SSW
USA 161 3.3 03:39:47 32° NE 03:39:47 32° NE 03:41:50 10° N
ERS-2 3.2 03:42:43 10° N 03:45:34 36° NW 03:45:34 36° NW
CZ-2D R/B 3.0 03:40:59 10° NNE 03:46:14 46° E 03:48:54 26° SSE
ARIANE 5 R/B 2.7 03:41:28 10° NNE 03:46:27 63° ESE 03:48:01 42° SSE
Meteor 2-4 Rocket 3.6 03:41:05 10° N 03:46:27 77° E 03:48:47 35° SSE
Cosmos 1892 Rocket 3.5 03:44:04 10° N 03:48:25 76° E 03:49:17 55° SSE
Cosmos 1315 Rocket 3.0 03:51:55 58° SE 03:52:28 67° E 03:56:29 10° NNE
Cosmos 1356 4.0 03:53:28 50° NW 03:53:28 50° NW 03:56:25 10° N
SL-08 R/B 3.8 03:53:07 42° W 03:53:07 42° W 03:57:39 10° NNW
Cosmos 1140 Rocket 3.7 03:53:24 10° NNW 03:58:17 46° WSW 03:58:37 45° WSW
Cosmos 1331 Rocket 4.2 03:58:40 36° S 04:00:41 66° ESE 04:05:51 10° NNE
Cosmos 1833 Rocket 4.2 03:57:11 10° N 04:02:22 37° ENE 04:07:30 10° SE
Cosmos 1975 3.7 04:10:39 25° SSE 04:12:37 46° E 04:16:27 10° NNE
UNKNOWN OBJECT B 3.4 04:09:05 10° NNE 04:13:07 55° E 04:14:57 29° SSE
Cosmos 2100 Rocket 4.0 04:09:32 24° S 04:13:30 81° E 04:19:51 10° N
Resurs 1-4 Rocket 2.0 04:11:15 10° NNE 04:16:34 89° WNW 04:19:20 29° SSW
Cosmos 1602 Rocket 4.2 04:13:46 10° N 04:18:01 54° E 04:22:00 12° SSE
ADEOS 4.4 04:14:49 10° N 04:19:31 35° WNW 04:21:12 28° WSW
Cosmos 1633 4.2 04:20:18 21° WNW 04:20:18 21° WNW 04:22:47 10° NNW
Cosmos 1536 4.4 04:20:02 21° WNW 04:20:02 21° WNW 04:23:10 10° NNW
Cosmos 1025 Rocket 4.2 04:19:33 10° NW 04:22:58 25° W 04:22:58 25° W
EO 1 Del DPAF 3.2 04:27:27 31° S 04:29:09 67° WSW 04:33:02 10° NNW
Cosmos 1455 Rocket 3.8 04:30:38 30° WSW 04:31:52 37° W 04:36:00 10° NNW
Okean 2 3.9 04:28:34 10° NNW 04:32:24 38° W 04:33:23 33° SW
Cosmos 2369 Rocket 4.2 04:29:33 10° SSE 04:33:51 22° E 04:38:09 10° NE
Cosmos 1626 Rocket 3.5 04:30:08 10° N 04:34:33 86° E 04:38:30 13° S
OAO 3 Copernicus 4.2 04:33:26 18° W 04:37:15 88° S 04:42:18 10° E
ATLAS 5 CENTAUR R/B 2.6 04:32:07 10° NW 04:38:00 48° WSW 04:44:12 10° S
PSLV R/B 3.2 04:36:56 36° WSW 04:38:11 79° NNW 04:41:35 10° ENE
Okean O Rocket 2.0 04:34:37 10° NNE 04:38:56 59° E 04:42:31 14° S
Cosmos 1302 Rocket 4.0 04:37:32 22° SSW 04:41:00 89° WNW 04:46:16 10° NNE
MTI 3.7 04:43:19 23° S 04:45:14 65° WSW 04:48:31 10° NNW
Atlas Centaur 2 3.9 04:40:34 19° SSW 04:45:37 35° SSE 04:53:05 10° E
UNK 4.1 04:46:10 20° SSW 04:48:58 42° W 04:53:23 10° NNW
ATLAS 2A CENTAUR R/B 4.4 04:42:20 18° WSW 04:49:10 45° S 05:39:19 10° SE
Cosmos 2278 Rocket 4.1 04:46:24 11° W 04:49:28 16° NW 04:52:51 10° NNW
Timation 2 Rocket 4.4 04:44:08 10° NW 04:49:38 37° WSW 04:55:02 10° S
USA 234 3.4 04:43:26 10° SSE 04:49:44 50° SW 04:56:03 10° NW
DNEPR-1 R/B 4.3 04:46:12 10° NNW 04:51:34 65° ENE 04:56:01 10° SE
Timation 1 Rocket 4.4 04:48:17 20° SW 04:52:34 68° WNW 04:58:35 10° NNE
Cosmos 2061 Rocket 4.3 04:48:52 18° SSW 04:53:29 52° W 04:59:44 10° N
BREEZE-M DEB 3.6 04:55:15 35° WSW 04:56:02 65° NW 04:58:50 10° NE
PAYLOAD B 4.4 04:51:09 10° NNE 04:56:46 77° ESE 05:02:22 10° S
CENTAUR R/B 4.3 04:56:34 10° WNW 05:01:43 19° WSW 05:05:07 14° SW
CZ-4B DEB 4.4 04:56:27 10° NNE 05:02:02 74° ESE 05:07:34 10° S
Cosmos 1606 Rocket 4.1 05:01:10 10° S 05:05:31 60° E 05:09:50 10° NNE
Cosmos 2016 Rocket 4.2 05:03:47 12° SSW 05:09:33 53° W 05:15:39 10° N
Cosmos 2082 Rocket 2.6 05:05:31 10° NW 05:10:51 42° WSW 05:16:09 10° S
CZ-4B R/B 3.3 05:05:57 10° N 05:11:38 81° WNW 05:17:15 10° SSW
SL-16 R/B 3.3 05:07:01 11° SSW 05:12:13 30° W 05:17:38 10° NW
NAVSTAR 52 R/B(PAM-D 4.2 05:11:59 15° WNW 05:13:20 38° N 05:15:31 10° ENE
Cosmos 1500 3.8 05:15:36 12° SSW 05:18:53 40° W 05:22:35 10° N
Cosmos 1743 2.6 05:15:51 10° S 05:19:40 78° W 05:23:29 10° N
Cosmos 2233 Rocket 4.3 05:13:46 10° S 05:19:59 73° E 05:26:10 10° N
Cosmos 1953 Rocket 4.1 05:16:26 10° N 05:20:46 62° E 05:25:02 10° SSE
Cosmos 1486 Rocket 4.2 05:15:49 10° NNW 05:20:59 52° WSW 05:26:07 10° S
Cosmos 1515 4.1 05:18:14 10° NNW 05:21:52 42° W 05:25:29 10° SSW
MOZ.5/SAFIR/RUBIN 5/SL-8 3.8 05:17:45 10° S 05:22:30 70° W 05:27:17 10° NNW
CZ-3C R/B 3.2 05:22:25 10° S 05:23:49 11° SSE 05:25:43 10° SE
ARIANE 5 R/B 4.5 05:22:43 10° NW 05:25:00 13° WNW 05:27:17 10° W
CZ-2D R/B 3.7 05:21:57 10° NNW 05:25:55 21° WNW 05:29:54 10° WSW
Cosmos 1725 Rocket 4.1 05:20:11 10° SSW 05:26:22 60° W 05:32:32 10° N
BREEZE-M DEB (TANK) 4.2 05:25:37 10° SSW 05:31:48 36° SE 05:35:33 10° ENE
Cosmos 1346 Rocket 3.8 05:29:33 10° NNW 05:33:02 28° W 05:36:26 10° SSW
USA 129 3.8 05:32:30 11° WSW 05:33:16 13° W 05:34:18 10° WNW
Cosmos 2098 Rocket 3.3 05:33:26 10° SSW 05:36:53 45° WNW 05:41:13 10° N
CZ-3B DEB 4.4 05:12:03 10° NW 05:37:15 80° NE 05:44:44 10° SE
Cosmos 1816 Rocket 4.5 05:34:02 10° N 05:40:10 77° W 05:46:21 10° S
Cosmos 1066 Rocket 4.4 05:36:12 10° NNW 05:41:23 46° W 05:46:28 10° SSW
USA 229 DEB 3.9 05:34:13 10° NNW 05:41:23 87° WSW 05:48:36 10° SSE
USA 229 3.9 05:34:19 10° NNW 05:41:29 87° WSW 05:48:42 10° SSE
SL-8 R/B 3.7 05:37:20 10° SW 05:42:07 82° NW 05:46:55 10° NE
Cosmos 2084 4.3 05:39:57 10° WSW 05:43:24 30° NW 05:46:49 10° N
Cosmos 1833 Rocket 3.7 05:41:30 10° NW 05:46:02 26° WSW 05:50:34 10° SSW
